sat.trackr.live / text

‹ back to catalog

YUNHAI-2 02B

NORAD 59281 · 2024-052B

PAYLOAD ACTIVE UNKNOWN

§ Identity

Operator
Country
PRC
Launch date
2024-03-21
Launch site
JSC
Launch vehicle
Mass (kg)
RCS (m²)

External: N2YO · Heavens-Above · Gunter

§ Orbital elements

Epoch: 2026-09-22T20:12:45.959040Z

Period
100.84 min
Inclination
50.0115°
Eccentricity
0.0004879
Mean motion
14.28001599 rev/d
Perigee alt
794.9 km
Apogee alt
801.9 km
Semi-major
7,176.6 km
B*
6.5331e-5
RAAN
328.6563°
Arg perigee
174.4006°
Mean anomaly
185.6964°
Rev number
13,056

§ Raw data

YUNHAI-2 02B1 59281U 24052B   26265.84219860  .00000002  00000+0  65331-4 0  99902 59281  50.0115 328.6563 0004879 174.4006 185.6964 14.28001599130565

JSON: /api/v1/satellites/59281 · /tle

For live sub-satellite position, see the globe view (requires WebGL).

§ Visibility from observer

Set your observer location to see the next 7 days of passes ≥ 10°. The values pass through the URL so the page stays shareable.

No JS? Fill the form by hand. The geolocation button needs JavaScript.